sat.trackr.live / text

‹ back to catalog

GEESAT-6 03

NORAD 65715 · 2025-214D

PAYLOAD ACTIVE UNKNOWN

§ Identity

Operator
Country
PRC
Launch date
2025-09-24
Launch site
YSLA
Launch vehicle
Mass (kg)
RCS (m²)

External: N2YO · Heavens-Above · Gunter

§ Orbital elements

Epoch: 2026-09-20T14:25:23.730240Z

Period
97.06 min
Inclination
49.9818°
Eccentricity
0.0012731
Mean motion
14.83569877 rev/d
Perigee alt
609.2 km
Apogee alt
627.0 km
Semi-major
6,996.2 km
B*
1.5399e-4
RAAN
225.8440°
Arg perigee
232.1208°
Mean anomaly
127.8579°
Rev number
5,367

§ Raw data

GEESAT-6 031 65715U 25214D   26263.60096910  .00001055  00000+0  15399-3 0  99982 65715  49.9818 225.8440 0012731 232.1208 127.8579 14.83569877 53670

JSON: /api/v1/satellites/65715 · /tle

For live sub-satellite position, see the globe view (requires WebGL).

§ Visibility from observer

Set your observer location to see the next 7 days of passes ≥ 10°. The values pass through the URL so the page stays shareable.

No JS? Fill the form by hand. The geolocation button needs JavaScript.